Location: Crayja
(6.2254°N, 10.6273°W)
Time: 14:23:30
(UTC+00:00)

STARLINK-24 - Pass Details

Date: 17 February 2020
Orbit: 527 x 529 km, 53.0° (Epoch: 29 March)

Event Time Altitude Azimuth Distance (km) Brightness Sun altitude
Exits shadow 05:17:25 46° 147° (SSE) 713 4.4 -25.5°
Drops below altitude 10° 05:20:18 10° 146° (SSE) 1,769 6.7 -24.8°
Sets 05:22:31 0° 146° (SE) 2,659 7.8 -24.2°
